Погода в Омолоне

Погода в Омолоне : погода сейчас, прогноз погоды и архив. Всё, что Вы хотите узнать о погоде в Омолоне!

Поиск расширенной информации на нашем сайте:

Другие новости

Новости СМИ2

Главная страница сайта

Новости сайта

03.07.2017

Напоминаем, что на нашем специализированном сайте Метеоцентр.Азия вы можете получить высокодетализированные автоматические прогнозы погоды по пунктам России, СНГ и мира в авиационном формате (включающие направление и скорость ветра, видимость, явления погоды, количество и форму облачности, нижнюю и верхнюю границу облачности).

Рекомендуем: Лекция 8 утилизация отходов производства.

Погода в Омолоне - сегодня

Время (UTC), дата Ветер
(°,м/с) 
Видим.   Явления Облачность Т
(°С)
Тd
(°С)
f(%) Тe
(°С)
Pmin
(гПа)
dP
(гПа)
Po
(мм)
O2
(г/м3)
Тmin Tmax R s Состояние
почвы
06 23.07.17 290 (З) 4{10}  50000 м  {дождь}  10/10 200 м 
[Sc]
+10.8 +8.9 88 +10  998.5  1.5  726  280           
09 23.07.17 280 (З) 3{10}  50000 м    10/10 600 м 
[Sc]
+10.9 +8.6 86 +11  1000.2  1.6  727  280    +11.6     
12 23.07.17 210 (ЮЗ) 1{06}  50000 м    10/10 570 м 
[Sc]
+9.6 +1.5 57 +11  1001.5  1.2  728  283           
15 23.07.17 130 (ЮВ) 2{03}  50000 м    10/10 600 м 
[Sc]
+9.1 +8.2 94 +9  1001.6  728  282           
18 23.07.17 100 (В) 1{03}  50000 м    10/10 700 м 
[Sc]
+10 +9 93 +11  1001.2  -0.3  728  281           
21 23.07.17 110 (В) 2{04}  50000 м  {дождь}  9/8 100 м средняя 
[Sc|Ac trans]
+11.9 +10.7 92 +15  1000.8  -0.2  728  279  +9.1      мокрая 
00 24.07.17 320 (СЗ) 2{05}  50000 м    9/8 300 м средняя, верхняя 
[Cu hum|Ac trans|Ci fib]
+13.9 +10.7 81 +17  1001.7  1.1  728  277           
03 24.07.17 300 (СЗ) 4{07}  50000 м  {ливн. осадки}  8/6 600 м кучево-дожд., средняя, верхняя 
[Cb cap|Ac trans|Ci fib]
+15.8 +10.3 70 +18  1003  1.5  730  276           
06 24.07.17 260 (З) 3{07}  50000 м  в посл. час ливневой дождь  8/8 600 м кучево-дожд., средняя 
[Cb cap|Ac trans]
+13.3 +11.5 89 +17  1006.3  2.9  732  279           
12 24.07.17 260 (З) 2{04}  50000 м    8/5 1000 м средняя 
[Sc|Ac trans]
+11.2 +9.2 87 +12  1011.2  2.3  735  283           
15 24.07.17 290 (З) 3{05}  50000 м    9/9 1170 м 
[Sc]
+10.4 +8.6 89 +10  1013  1.6  736  284           
18 24.07.17 290 (З) 3{07}  50000 м    9/4 1000 м средняя 
[Sc|Ac trans]
+9.2 +7.1 87 +9  1015.3  738  286           
21 24.07.17 300 (СЗ) 2{07}  50000 м    8/3 600 м средняя, верхняя 
[Sc|Ac trans|Ci fib]
+11.1 +6.7 74 +11  1016  0.9  739  285  +9        мокрая 
00 25.07.17 330 (СЗ) 2{05}  50000 м    9/8 600 м средняя 
[Sc|Ac trans]
+13.2 +6.1 62 +14  1016  0.3  739  283           
03 25.07.17 120 (ЮВ) 1{04}  50000 м    8/8 600 м 
[Sc]
+15.4 +7.9 61 +17  1014.7  738  280           
06 25.07.17 100 (В) 2{04}  50000 м    4/1 1000 м верхняя 
[Sc|Ci fib]
+17.6 +7.7 52 +18  1012.7  -1.7  737  278           
09 25.07.17 090 (В) 2{04}  50000 м    5/0 верхняя 
[Ci fib]
+16.7 +8.6 59 +18  1012.2  -0.6  736  278    +18.1       
12 25.07.17 100 (В) 1{03}  50000 м    3/0 верхняя 
[Ci fib]
+10 +7.4 84 +11  1012.2  -0.8  736  285           
15 25.07.17 130 (ЮВ) 1{04}  50000 м    3/0 верхняя 
[Ci fib]
+7.5 +5.7 88 +8  1011.7  -0.6  735  287           
18 25.07.17 110 (В) 1{04}  50000 м    4/0 верхняя 
[Ci fib]
+8.7 +6.3 85 +10  1011.3  -0.3  735  286           
21 25.07.17 140 (ЮВ) 2{05}  50000 м    10/0 верхняя 
[Cs]
+17.7 +10 61 +21  1009.4  -0.9  734  276  +7.1        мокрая 
00 26.07.17 150 (ЮВ) 4{10}  50000 м    9/6 1000 м средняя, верхняя 
[Sc|Ac As|Ci fib]
+20.3 +9.2 49 +21  1007.9  -1.2  734  273           
03 26.07.17 170 (Ю) 5{10}  50000 м    10/6 1000 м верхняя 
[Sc|Cs]
+23.1 +8.4 39 +23  1005.8  -1.8  732  271           
06 26.07.17 180 (Ю) 3{09}  50000 м    10/6 1000 м верхняя 
[Sc|Cs]
+21.1 +9.3 47 +22  1004.9  -1.1  731  272           
12 26.07.17 140 (ЮВ) 4{09}  50000 м  {дождь}  10/6 1000 м верхняя 
[Sc|Cs]
+14.5 +12 85 +18  1004.9  -0.2  731  277           
Время (UTC), дата Ветер
(°,м/с) 
Видим.   Явления Облачность Т
(°С)
Тd
(°С)
f(%) Тe
(°С)
Pmin
(гПа)
dP
(гПа)
Po
(мм)
O2
(г/м3)
Тmin Tmax R s Состояние
почвы

Для получения пояснительной информации подведите курсор к названию столбца.

ПОГОДА в Омолоне - архив

Всё, что Вы хотите узнать о погоде в Омолоне - удобно и подробно!

Выберите нужную дату (начиная с 1 января 2015* года) и нажмите кнопку "Найти".
Будут отображены архивные сводки погоды по пункту Омолон, начиная с указанной даты.


Отображать данные в формате CSV (для использования в таблицах Excel)


Внимание! Наш архив погоды предназначен исключительно для личного некоммерческого использования в познавательных целях. Если Вам необходимы официальные справки о состоянии погоды (для производственных, юридических, коммерческих и т.п. целей), обращайтесь в органы Росгидромета.

*Примечание: данная дата относится к архиву по метеостанциям СССР (Россия, СНГ, Балтия).
Архив по метеостанциям Зарубежной Европы и Азии (кроме Китая) хранится 10 дней, по другим регионам земного шара (Китай, Африка, Америка, Австралия, Океания) - 1 день.

Омолон - район местоположения метеостанции


Название, широта, долгота, высота метеостанции:
Омолон 65.2°ш. 160.5°д. 264 м над ур. моря [Российская Федерация]

Дополнительная информация

В oтличие oт бoльшинства пoгoдных сайтoв мы публикуем пoдрoбную метеoинфoрмацию в детальнoм прoфессиoнальнoм фoрмате.

Характеристики температуры и влажнoсти вoздуха измеряются на высoте 2 м в тени вдали oт зданий и деревьев.
Скoрoсть ветра измеряется на высoте 10 м (на урoвне рoста челoвека скoрoсть ветра ниже в 1.5-2 раза). Если метеoстанция нахoдится в гoрoде или в лесу, тo скoрoсть ветра занижена на 2-4 м/с пo сравнению с oткрытым местoм. Скoрoсть ветра над акватoриями крупных рек и oзёр, а также на вершинах хoлмoв на 2-5 м/с выше, чем в oбычных услoвиях.
Атмoсфернoе давление в разных тoчках местнoсти мoжет значительнo oтличаться oт давления на метеoстанции, в зависимoсти oт услoвий рельефа (при пoдъёме на 10 м давление пoнижается примернo на 1 мм рт.ст.).